• Processing (Info)

  • MPEC 2000-Y15 : S/2000 S 1, S/2000 S 2, S/2000 S 7, S/2000 S 8, S/2000 S 9

    The following Minor Planet Electronic Circular may be linked-to from your own Web pages, but must not otherwise be redistributed electronically.

    A form allowing access to any MPEC is at the bottom of this page.


    Read MPEC 2000-Y14 Read MPEC 2000-Y16


    M.P.E.C. 2000-Y15                                Issued 2000 Dec. 19, 21:04 UT
    
         The Minor Planet Electronic Circulars contain information on unusual
             minor planets and routine data on comets.  They are published
       on behalf of Commission 20 of the International Astronomical Union by the
              Minor Planet Center, Smithsonian Astrophysical Observatory,
                              Cambridge, MA 02138, U.S.A.
    
                 Prepared using the Tamkin Foundation Computer Network
    
                                  MPC@CFA.HARVARD.EDU
              URL http://cfa-www.harvard.edu/iau/mpc.html  ISSN 1523-6714
    
              S/2000 S 1, S/2000 S 2, S/2000 S 7, S/2000 S 8, S/2000 S 9
    
    Orbital elements:
    S/2000 S 1
    Epoch 2001 Apr. 1.0 TT = JDT 2452000.5                  Marsden
    M 350.61221              (2000.0)            P               Q
    n   0.27949309     Peri.   39.90853     -0.96981767     +0.23740116
    a   0.1526229      Node   206.33370     +0.17918080     +0.84861031
    e   0.3665803      Incl.  172.79616     +0.16537207     +0.47275917
    P   3.53           H   12.3           P/d  1288.05
    Residuals in seconds of arc
    K0087  809  0.0   0.0     K009O  568  0.1-  0.1-    K009T  809  0.1-  0.3+
    K0087  809  0.1-  0.2-    K009O  568  0.0   0.1-    K00B2  695  0.1+  0.0
    K0087  809  0.1+  0.1+    K009R  693  0.2-  0.1-    K00B2  695  0.0   0.0
    K009N  568  0.0   0.0     K009R  693  0.2+  0.0     K00B3  695  0.0   0.1-
    K009N  568  0.1+  0.0     K009R  693  0.1+  0.1+    K00B3  695  0.0   0.1-
    K009N  568  0.2+  0.1-    K009T  809  0.1-  0.2+
    K009O  568  0.0   0.0     K009T  809  0.2-  0.2+
    
    S/2000 S 2
    Epoch 2001 Apr. 1.0 TT = JDT 2452000.5                  Marsden
    M 182.99223              (2000.0)            P               Q
    n   0.52155831     Peri.  239.33838     -0.58750210     +0.80303560
    a   0.1006928      Node   352.04333     -0.22954186     -0.28372712
    e   0.4585252      Incl.   46.17993     -0.77598442     -0.52405414
    P   1.89           H   11.9           P/d   690.24
    Residuals in seconds of arc
    K0087  809  0.1+  0.1-    K00AN  675  0.2-  0.1-    K00B9  696  0.2-  0.2-
    K0087  809  0.0   0.0     K00AN  675  0.2+  0.0     K00B9  696  0.2+  0.2-
    K0087  809  0.1-  0.2-    K00AN  675  0.1-  0.1-    K00B9  696  0.2+  0.3-
    K009N  568  0.0   0.1+    K00B2  695  0.1+  0.2-    K00B9  696  0.6+  0.5+
    K009N  568  0.0   0.0     K00B2  695  0.0   0.2+    K00B9  696  0.1-  0.5-
    K009N  568  0.0   0.1+    K00B2  695  0.3-  0.3-    K00BO  809  0.2-  0.1+
    K009O  568  0.0   0.1+    K00B2  695  0.2-  0.0     K00BO  809  0.1+  0.1+
    K009O  568  0.0   0.1+    K00B3  695  0.0   0.4+    K00BO  809  0.1-  0.1+
    K009O  568  0.0   0.2+    K00B3  695  0.1+  0.1+
    
    S/2000 S 7
    Epoch 2001 Apr. 1.0 TT = JDT 2452000.5                  Marsden
    M 145.10929              (2000.0)            P               Q
    n   0.34737143     Peri.   89.16654     -0.91941382     +0.38492741
    a   0.1320295      Node   246.53051     +0.31671761     +0.84627744
    e   0.5439151      Incl.  174.95400     +0.23316986     +0.36830066
    P   2.84           H   14.3           P/d  1036.35
    Residuals in seconds of arc
    K009N  568  0.1+  0.0     K009O  568  0.2+  0.1-    K00BR  675  0.1-  0.1+
    K009N  568  0.0   0.2+    K009O  568  0.1+  0.1-    K00BR  675  0.1+  0.1-
    K009N  568  0.1-  0.2+    K00B4  309  0.0   0.0
    K009O  568  0.1-  0.2-    K00B4  309  0.0   0.0
    
    S/2000 S 8
    Epoch 2001 Apr. 1.0 TT = JDT 2452000.5                  Marsden
    M 336.22229              (2000.0)            P               Q
    n   0.49283362     Peri.  208.62059     +0.16715804     +0.84751946
    a   0.1045683      Node   285.02467     +0.97442926     -0.06420089
    e   0.2140774      Incl.  148.56133     +0.15015260     -0.52686716
    P   2.00           H   14.2           P/d   730.47
    Residuals in seconds of arc
    K009N  568  0.1+  0.1-    K009O  568  0.1+  0.1+    K00BR  675  0.1-  0.1+
    K009N  568  0.2-  0.1-    K009O  568  0.0   0.1+    K00BR  675  0.1+  0.1-
    K009N  568  0.2-  0.1-    K00B4  309  0.0   0.0
    K009O  568  0.1+  0.2+    K00B4  309  0.0   0.0
    
    S/2000 S 9
    Epoch 2001 Apr. 1.0 TT = JDT 2452000.5                  Marsden
    M 281.65278              (2000.0)            P               Q
    n   0.38162648     Peri.  298.20537     -0.76917015     +0.61382087
    a   0.1240056      Node    79.78166     +0.63114979     +0.68609478
    e   0.2539976      Incl.  169.59340     +0.10013606     +0.39050979
    P   2.58           H   14.5           P/d   943.33
    Residuals in seconds of arc
    K009N  568  0.3+  0.0     K009O  568  0.2-  0.0     K00BR  675  0.3+  0.2+
    K009N  568  0.0   0.1-    K00B4  309  0.2+  0.1-    K00BR  675  0.2-  0.3+
    K009N  568  0.1+  0.0     K00B4  309  0.1-  0.1-    K00BR  675  0.2-  0.1-
    K009O  568  0.1-  0.0     K00BR  675  0.0   0.2-    K00BR  675  0.1+  0.2-
    K009O  568  0.1-  0.1+    K00BR  675  0.2-  0.0
    
    Ephemerides:
        S/2000 S 1                                                   q = 0.0967
    Date    TT    R. A. (2000) Decl.     Delta     r_S   dR.A. ("/m)  dDecl.m1"/')
    2000 12 12    03 35.42   +16 51.3    8.092    0.123   375-/0.44-   467-/  7.8-
    2000 12 22    03 32.98   +16 45.5    8.177    0.120   191-/0.22-   388-/  6.5-
    2001 01 01    03 31.10   +16 41.9    8.287    0.117     3-/0.00    304-/  5.1-
    2001 01 11    03 29.87   +16 40.8    8.420    0.115   187+/0.22+   217-/  3.6-
    2001 01 21    03 29.36   +16 42.5    8.569    0.112   379+/0.44+   129-/  2.2-
    2001 01 31    03 29.61   +16 47.0    8.731    0.109   569+/0.66+    42-/  0.7-
    2001 02 10    03 30.62   +16 54.3    8.900    0.107   755+/0.88+    44+/  0.7+
    2001 02 20    03 32.36   +17 03.9    9.072    0.105   936+/1.09+   126+/  2.1+
    2001 03 02    03 34.79   +17 15.8    9.241    0.103  1107+/1.29+   202+/  3.4+
    2001 03 12    03 37.84   +17 29.5    9.404    0.101  1268+/1.48+   273+/  4.6+
    2001 03 22    03 41.46   +17 44.5    9.556    0.100  1416+/1.65+   337+/  5.6+
    2001 04 01    03 45.56   +18 00.6    9.695    0.099  1547+/1.81+   393+/  6.5+
    2001 04 11    03 50.07   +18 17.3    9.816    0.098  1661+/1.94+   441+/  7.3+
    
        S/2000 S 2                                                   q = 0.0545
    Date    TT    R. A. (2000) Decl.     Delta     r_S   dR.A. ("/m)  dDecl. ("/')
    2000 12 12    03 33.32   +17 16.4    8.310    0.137  2179-/2.53-  1037+/ 17.3+
    2000 12 22    03 30.80   +17 11.1    8.396    0.139  2070-/2.41-  1149+/ 19.2+
    2001 01 01    03 28.83   +17 07.8    8.507    0.140  1955-/2.27-  1252+/ 20.9+
    2001 01 11    03 27.51   +17 06.9    8.639    0.142  1839-/2.14-  1346+/ 22.4+
    2001 01 21    03 26.92   +17 08.5    8.787    0.143  1724-/2.00-  1431+/ 23.8+
    2001 01 31    03 27.08   +17 12.8    8.946    0.144  1612-/1.87-  1506+/ 25.1+
    2001 02 10    03 27.99   +17 19.7    9.111    0.145  1504-/1.75-  1573+/ 26.2+
    2001 02 20    03 29.64   +17 29.1    9.277    0.146  1403-/1.63-  1632+/ 27.2+
    2001 03 02    03 31.97   +17 40.5    9.440    0.146  1306-/1.52-  1685+/ 28.1+
    2001 03 12    03 34.95   +17 53.8    9.595    0.147  1215-/1.42-  1732+/ 28.9+
    2001 03 22    03 38.48   +18 08.5    9.738    0.147  1128-/1.32-  1774+/ 29.6+
    2001 04 01    03 42.53   +18 24.3    9.866    0.147  1045-/1.22-  1813+/ 30.2+
    2001 04 11    03 46.99   +18 40.8    9.976    0.147   964-/1.13-  1848+/ 30.8+
    
        S/2000 S 7                                                   q = 0.0602
    Date    TT    R. A. (2000) Decl.     Delta     r_S   dR.A. ("/m)  dDecl. ("/')
    2000 12 12    03 32.09   +16 42.1    8.328    0.179  3241-/3.76-  1023-/ 17.1-
    2000 12 22    03 29.39   +16 34.3    8.411    0.181  3290-/3.81-  1059-/ 17.6-
    2001 01 01    03 27.24   +16 28.8    8.518    0.183  3331-/3.86-  1089-/ 18.2-
    2001 01 11    03 25.75   +16 25.9    8.646    0.185  3367-/3.90-  1114-/ 18.6-
    2001 01 21    03 24.98   +16 25.8    8.790    0.187  3401-/3.94-  1134-/ 18.9-
    2001 01 31    03 24.97   +16 28.6    8.945    0.189  3434-/3.98-  1150-/ 19.2-
    2001 02 10    03 25.72   +16 34.2    9.106    0.191  3469-/4.02-  1161-/ 19.4-
    2001 02 20    03 27.21   +16 42.4    9.268    0.193  3505-/4.07-  1169-/ 19.5-
    2001 03 02    03 29.38   +16 52.9    9.426    0.194  3543-/4.11-  1173-/ 19.5-
    2001 03 12    03 32.20   +17 05.4    9.575    0.196  3584-/4.17-  1173-/ 19.5-
    2001 03 22    03 35.58   +17 19.4    9.713    0.197  3626-/4.22-  1170-/ 19.5-
    2001 04 01    03 39.47   +17 34.7    9.835    0.198  3671-/4.28-  1164-/ 19.4-
    2001 04 11    03 43.78   +17 50.7    9.939    0.199  3717-/4.34-  1155-/ 19.3-
    
